Volver al catálogo

STARLINK-34361

ActivoComunicacionesVLEO
NORAD 64450·PAYLOAD·🇺🇸 United States

Lanzado Jun 18, 2025 desde Cape Canaveral Space Force Station

Loading…

Próximos Pases (próximas 24 horas)

TLE

ActualizadoSource: CelesTrak SupGP

Época: Sep 14, 2026, 21:36 UTC

1 64450C 25130N   26257.90048611  .00041495  00000+0  12262-2 0  2575
2 64450  53.1584 285.7855 0001118  93.8761  21.9627 15.34364634    19

Sigue STARLINK-34361 en tiempo real con AllMySat

Download on the App Store